This is the latest recevied weather packets stored in our database for station/object KCDH. If no packets are shown the sender has not sent any weather packets the latest 10 day(s).
| Time | Temp. | Humidity | Pressure | Rain* | Wind** | Luminosity | Snow |
|---|---|---|---|---|---|---|---|
| 1787754807 | 28.89° C | 66% | 1014.6 hPa | - | - | - | - |
| 1787754207 | 28.89° C | 66% | 1014.6 hPa | - | - | - | - |
| 1787753607 | 28.89° C | 70% | 1014.6 hPa | - | - | - | - |
| 1787753007 | 28.89° C | 70% | 1014.6 hPa | - | - | - | - |
| 1787752407 | 27.78° C | 74% | 1014.9 hPa | - | - | - | - |
| 1787751807 | 27.78° C | 74% | 1014.9 hPa | - | - | - | - |
| 1787751206 | 25.56° C | 83% | 1014.9 hPa | - | - | - | - |
| 1787750607 | 25.56° C | 83% | 1014.9 hPa | - | - | - | - |
| 1787750002 | 25° C | 88% | 1014.9 hPa | - | - | - | - |
| 1787749405 | 25° C | 88% | 1014.9 hPa | - | - | - | - |
| 1787748804 | 23.89° C | 94% | 1014.9 hPa | - | - | - | - |
| 1787748205 | 23.89° C | 94% | 1014.9 hPa | - | - | - | - |
| 1787747605 | 22.78° C | 100% | 1014.9 hPa | - | - | - | - |
| 1787747007 | 22.78° C | 100% | 1014.9 hPa | - | - | - | - |
| 1787746408 | 22.78° C | 94% | 1014.2 hPa | - | - | - | - |
| 1787745806 | 22.78° C | 94% | 1014.2 hPa | - | - | - | - |
| 1787745206 | 22.78° C | 94% | 1014.2 hPa | - | - | - | - |
| 1787744606 | 22.78° C | 94% | 1014.2 hPa | - | - | - | - |
| 1787744008 | 22.78° C | 94% | 1013.9 hPa | - | - | - | - |
| 1787743406 | 22.78° C | 94% | 1013.9 hPa | - | - | - | - |
| 1787742806 | 22.78° C | 94% | 1013.5 hPa | - | - | - | - |
| 1787742205 | 22.78° C | 94% | 1013.5 hPa | - | - | - | - |
| 1787741606 | 22.78° C | 94% | 1013.9 hPa | - | - | - | - |
| 1787741005 | 22.78° C | 94% | 1013.9 hPa | - | - | - | - |
| 1787740405 | 22.78° C | 94% | 1013.9 hPa | - | - | - | - |
* Rain since midnight (hover to see other rain measurements)
** Current wind speed in m/s (hover to see current wind gust speed)